User: anonymous   Login
Location: Caltech
(34.1382°N, 118.1253°W)
Time: 02:07:48
(UTC-07:00)
Language:

ATLAS 5 CENTAUR R/B - Orbit

View from above orbital plane
View from above orbital plane
View from above satellite
View from above satellite

Ground track
Ground track

The orbit data is extracted from the following two-line orbital elements,

1 30778U 07006G   14303.52061937  .00142825  00000-0  10742-2 0  1532
2 30778 035.6807 320.6960 0002496 091.1916 041.2628 15.71139091426046
Epoch (UTC): 30 October 2014 12:29:41
Eccentricity: 0.0002496
inclination: 35.6807°
perigee height: 354 km
apogee height: 357 km
right ascension of ascending node: 320.6960°
argument of perigee: 91.1916°
revolutions per day: 15.71139091
mean anomaly at epoch: 41.2628°
orbit number at epoch: 42604

The dashed part of the orbit path shows where the satellite is in the earth's shadow,  

DLR